EW0890 Weather Reports


time (UTC)temp
C
wind
direction
speed
KPH
gust
KPH
rain 1hr
cm
rain 24hr
cm
rain mn
cm
humidity
%
barometer
mb
20260504042007 12 225 14.5 19.3 0.00 0.00 0.00 75 1007.7
20260504041523 12 221 16.1 19.3 0.00 0.00 0.00 75 1007.7
20260504041010 12 229 14.5 19.3 0.00 0.00 0.00 76 1007.7
20260504040510 12 224 12.9 16.1 0.00 0.00 0.00 75 1007.8
20260504040028 12 237 11.3 16.1 0.00 0.00 0.00 74 1007.8
20260504035512 12 219 11.3 16.1 0.00 0.00 0.00 74 1007.9
20260504035007 12 236 12.9 17.7 0.00 0.00 0.00 73 1008.0
20260504034529 12 226 12.9 17.7 0.00 0.00 0.00 73 1008.0
20260504034011 12 220 14.5 17.7 0.00 0.00 0.00 73 1008.1
20260504033507 12 219 12.9 16.1 0.00 0.00 0.00 72 1008.1
20260504033017 13 232 9.7 16.1 0.00 0.00 0.00 71 1008.1
20260504032509 13 231 12.9 20.9 0.00 0.00 0.00 71 1008.2
20260504032009 13 224 14.5 20.9 0.00 0.00 0.00 71 1008.2
20260504031524 13 225 12.9 17.7 0.00 0.00 0.00 70 1008.2
20260504031008 13 243 9.7 14.5 0.00 0.00 0.00 70 1008.1
20260504030507 13 244 8.0 14.5 0.00 0.00 0.00 70 1008.2
20260504030023 13 240 9.7 12.9 0.00 0.00 0.00 69 1008.1
20260504025507 13 253 9.7 12.9 0.00 0.00 0.00 69 1008.2
20260504025012 13 256 9.7 12.9 0.00 0.00 0.00 68 1008.1
20260504024528 13 257 9.7 12.9 0.00 0.00 0.00 69 1008.0
20260504024009 13 236 8.0 12.9 0.00 0.00 0.00 68 1008.0
20260504023504 13 249 9.7 11.3 0.00 0.00 0.00 69 1008.0
20260504023005 13 238 9.7 11.3 0.00 0.00 0.00 69 1008.0
20260504022506 13 239 9.7 11.3 0.00 0.00 0.00 69 1008.0
20260504022004 13 232 9.7 11.3 0.00 0.00 0.00 68 1008.0
20260504021502 14 241 9.7 11.3 0.00 0.00 0.00 67 1008.1
20260504021004 14 236 9.7 11.3 0.00 0.00 0.00 67 1008.1
20260504020503 14 231 9.7 12.9 0.00 0.00 0.00 67 1008.0
20260504020003 14 240 11.3 12.9 0.00 0.00 0.00 67 1007.9
20260504015503 14 240 11.3 12.9 0.00 0.00 0.00 66 1007.9
20260504015005 15 249 11.3 12.9 0.00 0.00 0.00 66 1007.9
20260504014506 14 251 8.0 11.3 0.00 0.00 0.00 65 1007.8
20260504014003 14 238 8.0 11.3 0.00 0.00 0.00 65 1007.8
20260504013503 15 231 9.7 11.3 0.00 0.00 0.00 65 1007.8
20260504013006 15 224 9.7 11.3 0.00 0.00 0.00 65 1007.8
20260504012504 15 231 9.7 11.3 0.00 0.00 0.00 64 1007.7
20260504012004 15 221 9.7 11.3 0.00 0.00 0.00 63 1007.8
20260504011504 15 232 8.0 11.3 0.00 0.00 0.00 62 1007.7
20260504011004 15 233 9.7 11.3 0.00 0.00 0.00 61 1007.7
20260504010503 15 243 8.0 11.3 0.00 0.00 0.00 60 1007.6
20260504010006 16 233 9.7 11.3 0.00 0.00 0.00 59 1007.6
20260504005504 16 242 8.0 9.7 0.00 0.00 0.00 58 1007.6
20260504005004 16 233 8.0 11.3 0.00 0.00 0.00 57 1007.6
20260504004503 16 233 8.0 11.3 0.00 0.00 0.00 56 1007.5
20260504004003 17 231 6.4 8.0 0.00 0.00 0.00 55 1007.6
20260504003503 17 243 4.8 9.7 0.00 0.00 0.00 53 1007.7
20260504003006 18 250 6.4 11.3 0.00 0.00 0.00 52 1007.7
20260504002503 18 246 8.0 12.9 0.00 0.00 0.00 51 1007.6
20260504002004 18 249 9.7 14.5 0.00 0.00 0.00 51 1007.6
20260504001508 18 245 11.3 16.1 0.00 0.00 0.00 49 1007.7
20260504001004 19 242 12.9 17.7 0.00 0.00 0.00 48 1007.6
20260504000504 19 236 12.9 19.3 0.00 0.00 0.00 48 1007.6
20260504000019 19 238 14.5 19.3 0.00 0.00 0.00 48 1007.5
20260503235506 19 248 14.5 19.3 0.00 0.00 0.00 48 1007.6
20260503235004 19 263 14.5 20.9 0.00 0.00 0.00 47 1007.6
20260503234508 19 251 16.1 22.5 0.00 0.00 0.00 47 1007.6
20260503234004 19 250 16.1 24.1 0.00 0.00 0.00 46 1007.5
20260503233505 19 250 19.3 24.1 0.00 0.00 0.00 45 1007.5
20260503233007 19 240 19.3 22.5 0.00 0.00 0.00 45 1007.6
20260503232504 19 247 16.1 20.9 0.00 0.00 0.00 46 1007.7
20260503232004 20 213 17.7 22.5 0.00 0.00 0.00 45 1007.7
20260503231509 20 248 17.7 24.1 0.00 0.00 0.00 44 1007.7
20260503231004 20 242 19.3 25.7 0.00 0.00 0.00 44 1007.7
20260503230504 20 233 20.9 29.0 0.00 0.00 0.00 43 1007.8
20260503230008 20 246 22.5 29.0 0.00 0.00 0.00 42 1007.7
20260503225504 20 251 20.9 32.2 0.00 0.00 0.00 43 1007.8
20260503225007 20 252 22.5 32.2 0.00 0.00 0.00 43 1007.8
20260503224508 20 233 22.5 29.0 0.00 0.00 0.00 43 1007.9
20260503224004 19 240 22.5 29.0 0.00 0.00 0.00 44 1008.0
20260503223504 20 236 25.7 32.2 0.00 0.00 0.00 42 1008.1
20260503223008 20 245 24.1 33.8 0.00 0.00 0.00 43 1008.1
20260503222503 20 250 24.1 37.0 0.00 0.00 0.00 42 1008.1
20260503222003 19 241 29.0 37.0 0.00 0.00 0.00 43 1008.2
20260503221508 19 224 29.0 35.4 0.00 0.00 0.00 44 1008.1
20260503221003 18 252 27.4 33.8 0.00 0.00 0.00 45 1008.2
20260503220502 18 253 25.7 38.6 0.00 0.00 0.00 43 1008.2
20260503220012 18 240 27.4 38.6 0.00 0.00 0.00 43 1008.3
20260503215504 18 235 30.6 35.4 0.00 0.00 0.00 43 1008.3
20260503215003 18 236 27.4 37.0 0.00 0.00 0.00 43 1008.4
20260503214509 18 241 27.4 40.2 0.00 0.00 0.00 44 1008.3
20260503214005 18 233 30.6 40.2 0.00 0.00 0.00 44 1008.2
20260503213504 18 238 29.0 37.0 0.00 0.00 0.00 44 1008.2
20260503213010 18 239 29.0 41.8 0.00 0.00 0.00 44 1008.3
20260503212506 18 239 30.6 41.8 0.00 0.00 0.00 43 1008.5
20260503212004 18 229 32.2 43.5 0.00 0.00 0.00 43 1008.5
20260503211515 18 223 33.8 45.1 0.00 0.00 0.00 42 1008.5
20260503211003 18 233 33.8 45.1 0.00 0.00 0.00 42 1008.4
20260503210502 18 224 33.8 45.1 0.00 0.00 0.00 43 1008.4
20260503210010 18 221 33.8 45.1 0.00 0.00 0.00 45 1008.5
20260503205506 18 227 35.4 43.5 0.00 0.00 0.00 45 1008.5
20260503205007 18 223 30.6 53.1 0.00 0.00 0.00 46 1008.8
20260503204512 18 222 35.4 53.1 0.00 0.00 0.00 45 1009.0
20260503204005 18 234 35.4 45.1 0.00 0.00 0.00 44 1008.9
20260503203504 18 212 27.4 51.5 0.00 0.00 0.00 46 1009.0
20260503203019 18 226 37.0 53.1 0.00 0.00 0.00 45 1009.1
20260503202503 18 209 38.6 53.1 0.00 0.00 0.00 44 1009.4
20260503202006 18 227 41.8 53.1 0.00 0.00 0.00 43 1009.4
20260503201514 18 227 33.8 51.5 0.00 0.00 0.00 43 1009.4
20260503201002 18 222 35.4 53.1 0.00 0.00 0.00 45 1009.4
20260503200503 18 200 38.6 53.1 0.00 0.00 0.00 44 1009.3
20260503200004 18 228 40.2 57.9 0.00 0.00 0.00 42 1009.4
20260503195503 18 230 45.1 57.9 0.00 0.00 0.00 42 1009.5
20260503195005 18 198 38.6 57.9 0.00 0.00 0.00 44 1009.5
20260503194514 18 220 37.0 57.9 0.00 0.00 0.00 45 1009.4
20260503194003 18 210 40.2 53.1 0.00 0.00 0.00 45 1009.7
20260503193506 18 216 40.2 53.1 0.00 0.00 0.00 45 1009.8
20260503193018 18 208 41.8 53.1 0.00 0.00 0.00 44 1009.7
20260503192503 18 233 37.0 54.7 0.00 0.00 0.00 45 1009.8
20260503192003 18 210 41.8 54.7 0.00 0.00 0.00 45 1009.8
20260503191512 18 207 40.2 53.1 0.00 0.00 0.00 45 1009.8
20260503191003 17 204 35.4 53.1 0.00 0.00 0.00 46 1009.9
20260503190502 17 178 38.6 51.5 0.00 0.00 0.00 46 1009.9
20260503190006 17 207 35.4 57.9 0.00 0.00 0.00 47 1010.0
20260503185502 17 219 38.6 57.9 0.00 0.00 0.00 46 1010.2
20260503185003 17 215 45.1 57.9 0.00 0.00 0.00 44 1010.3
20260503184508 17 223 33.8 51.5 0.00 0.00 0.00 48 1010.7
20260503184005 16 219 35.4 51.5 0.00 0.00 0.00 46 1011.0
20260503183504 16 224 35.4 51.5 0.00 0.00 0.00 47 1011.0
20260503183013 16 220 33.8 49.9 0.00 0.00 0.00 48 1011.2
20260503182503 16 201 33.8 45.1 0.00 0.00 0.00 47 1011.3
20260503182004 16 211 35.4 48.3 0.00 0.00 0.00 47 1011.6
20260503181517 16 224 38.6 48.3 0.00 0.00 0.00 46 1011.8
20260503181004 16 233 35.4 45.1 0.00 0.00 0.00 46 1012.0
20260503180505 16 224 32.2 46.7 0.00 0.00 0.00 46 1012.1
20260503180026 16 224 37.0 46.7 0.00 0.00 0.00 45 1012.1
20260503175504 16 227 32.2 41.8 0.00 0.00 0.00 47 1012.3
20260503175003 16 226 33.8 41.8 0.00 0.00 0.00 46 1012.5
20260503174513 16 245 30.6 41.8 0.00 0.00 0.00 48 1012.7
20260503174004 16 224 33.8 41.8 0.00 0.00 0.00 47 1012.9
20260503173503 16 215 27.4 41.8 0.00 0.00 0.00 48 1013.3
20260503173018 16 207 30.6 41.8 0.00 0.00 0.00 47 1013.2
20260503172504 16 236 29.0 38.6 0.00 0.00 0.00 49 1013.2
20260503172003 15 228 29.0 41.8 0.00 0.00 0.00 48 1013.1
20260503171512 15 224 30.6 41.8 0.00 0.00 0.00 47 1013.0
20260503171006 15 231 32.2 41.8 0.00 0.00 0.00 47 1013.1
20260503170506 15 220 32.2 40.2 0.00 0.00 0.00 47 1013.1
20260503150503 12 226 30.6 37.0 0.00 0.00 0.00 61 1015.1
20260503131005 10 224 25.7 32.2 0.00 0.00 0.00 72 1016.1
20260503130505 10 218 25.7 32.2 0.00 0.00 0.00 71 1015.9
20260503110507 6 205 19.3 25.7 0.00 0.00 0.00 75 1015.9
20260503090503 6 206 16.1 22.5 0.00 0.00 0.00 71 1016.4
20260503081518 6 221 17.7 20.9 0.00 0.00 0.00 67 1016.5
20260503081003 6 218 14.5 20.9 0.00 0.00 0.00 67 1016.6
20260503080503 6 218 16.1 20.9 0.00 0.00 0.00 66 1016.5
20260503072510 6 226 14.5 20.9 0.00 0.00 0.00 63 1016.5
20260503072008 6 205 16.1 20.9 0.00 0.00 0.00 62 1016.5
20260503071526 6 210 14.5 20.9 0.00 0.00 0.00 63 1016.6
20260503071008 6 216 14.5 19.3 0.00 0.00 0.00 63 1016.6
20260503070511 6 220 14.5 19.3 0.00 0.00 0.00 63 1016.6
20260503055011 6 211 9.7 16.1 0.00 0.00 0.00 63 1017.3
20260503054003 6 205 11.3 16.1 0.00 0.00 0.00 63 1017.4
20260503053504 7 220 12.9 16.1 0.00 0.00 0.00 63 1017.4
20260503052506 6 209 11.3 14.5 0.00 0.00 0.00 63 1017.5
20260503052008 6 208 9.7 14.5 0.00 0.00 0.00 63 1017.5
20260503051007 6 216 11.3 14.5 0.00 0.00 0.00 63 1017.5
20260503050507 6 217 11.3 14.5 0.00 0.00 0.00 64 1017.5
20260503050024 6 214 11.3 14.5 0.00 0.00 0.00 64 1017.5
20260503045509 6 224 11.3 14.5 0.00 0.00 0.00 64 1017.5
20260503045007 6 226 9.7 14.5 0.00 0.00 0.00 65 1017.5
20260503044529 6 225 11.3 14.5 0.00 0.00 0.00 65 1017.4
20260503044011 6 226 9.7 12.9 0.00 0.00 0.00 66 1017.5
20260503043510 6 228 11.3 12.9 0.00 0.00 0.00 65 1017.5
20260503043025 6 224 9.7 12.9 0.00 0.00 0.00 65 1017.5
20260503042504 7 231 9.7 12.9 0.00 0.00 0.00 65 1017.4